Regional Weather Roundup
Issued by NWS Northern Indiana

Home | Current Version | Previous Version | Text Only | Print | Product List | Glossary Off
Versions: 1 2 3 4 5 6 7 8 9 10 11 12 13 14 15 16 17 18 19 20 21 22 23 24 25 26 27 28 29 30 31 32 33 34 35 36 37 38 39 40 41 42 43 44 45 46 47 48 49 50

288
ASUS43 KIWX 181100
RWRIWX

KIWX WEATHER ROUNDUP
NATIONAL WEATHER SERVICE NORTHERN INDIANA
600 AM EST MON DEC 18 2017

NOTE: "FAIR" INDICATES FEW OR NO CLOUDS BELOW 12,000 FEET WITH NO
SIGNIFICANT WEATHER AND/OR OBSTRUCTIONS TO VISIBILITY.

* THESE STATIONS ARE NOT UNDER NWS QUALITY CONTROL. THEY ALSO MAY NOT
  REPORT WEATHER SUCH AS PRECIPITATION OR FOG.

INZ001>027-181200-
NORTHERN INDIANA

CITY           SKY/WX    TMP DP  RH WIND       PRES   REMARKS
GARY*          CLOUDY    43  41  93 SW9       29.95S FOG
KNOX*          CLOUDY    41  39  93 SW8       29.96F
SOUTH BEND     CLOUDY    38  38 100 SW10      29.95F FOG
GOSHEN         LGT RAIN  39  38  96 SW12      29.95F FOG
MONTICELLO*    CLOUDY    40  39  95 SW9       29.98F FOG
WARSAW*        LGT RAIN  39  37  93 SW5       29.97S
FORT WAYNE     DRIZZLE   39  38  96 SW10      29.99F FOG
PERU/GRISSOM   CLOUDY    41  41 100 SW12      29.98F FOG

$$
INZ028>050-181200-
CENTRAL INDIANA

CITY           SKY/WX    TMP DP  RH WIND       PRES   REMARKS
LAFAYETTE      CLOUDY    42  41  96 SW6       30.00F FOG
KOKOMO*        LGT RAIN  40  40 100 SW13      30.00F FOG
MUNCIE*        CLOUDY    41  38  89 SW10      30.02S FOG
INDIANAPOLIS   DRIZZLE   42  41  96 SW8       30.04S FOG

$$
MIZ043>046-050>051-056>058-064>065-071>073-077>080-181200-
SOUTHWEST LOWER MICHIGAN

CITY           SKY/WX    TMP DP  RH WIND       PRES   REMARKS
BATTLE CREEK   LGT RAIN  37  36  96 SW10      29.93S FOG
BENTON HARBOR  CLOUDY    39  37  92 S9        29.93S FOG
COLDWATER*     CLOUDY    38  37  99 SW8       29.94F FOG
HILLSDALE*     DRIZZLE   36  34  93 SW9       29.93F
HOLLAND        CLOUDY    39  37  92 SW12      29.90F FOG
GRAND RAPIDS   DRIZZLE   36  35  96 S7        29.90F FOG
KALAMAZOO      CLOUDY    38  36  92 SW8       29.93F FOG
STURGIS*       CLOUDY    38  37  96 SW8       29.94F FOG
THREE RIVERS*  DRIZZLE   38  37  95 SW8       29.94F

$$
OHZ001>008-015>018-024>025-181200-
NORTHWEST OHIO

CITY           SKY/WX    TMP DP  RH WIND       PRES   REMARKS
DEFIANCE       CLOUDY    38  34  85 S7        29.99F
FINDLAY        CLOUDY    39  34  82 SW12      30.00F
TOLEDO EXPRESS CLOUDY    39  36  89 SW10      29.98F
TOLEDO METCALF CLOUDY    39  34  82 SW12      30.00F
LIMA           CLOUDY    38  36  92 S8        30.01S

$$
AND FOR LAKE MICHIGAN COASTAL AND OPEN LAKE BUOY OBSERVATIONS

STATION/POSITION TEMP    WIND        PRES    VSBY  WAVE
                 AIR SEA DIR/SP/G                  HT/PER
                 (F)     (DEG/KT/KT) (MB)    (MI)  (FT/S)
CALUMET HARBOR    42     200/  7/  9 1013.1F
MICHIGAN CITY     41     190/ 14/ 16   N/A
BURNS HARBOR      43     210/ 14/ 17 1014.2F
SAINT JOSEPH      41     200/ 11/ 15 1014.6

$$
&&




USA.gov is the U.S. government's official web portal to all federal, state and local government web resources and services.